FW3268 Weather Reports


time (UTC)temp
C
wind
direction
speed
KPH
gust
KPH
rain 1hr
cm
rain 24hr
cm
rain mn
cm
humidity
%
barometer
mb
20260503200004 10 119 12.9 16.1 0.05 0.15 0.15 77 1013.2
20260503194501 10 97 4.8 9.7 0.10 0.15 0.15 79 1013.8
20260503193000 9 77 1.6 6.4 0.15 0.15 0.15 82 1014.4
20260503191501 9 82 0.0 3.2 0.13 0.13 0.13 84 1014.5
20260503190003 9 271 0.0 3.2 0.10 0.10 0.10 81 1015.0
20260503184501 10 285 8.0 16.1 0.05 0.05 0.05 76 1015.5
20260503183001 10 281 19.3 30.6 0.00 0.00 0.00 74 1015.4
20260503180004 13 253 25.7 41.8 0.00 0.00 0.00 55 1015.0
20260503174502 14 242 27.4 35.4 0.00 0.00 0.00 53 1015.2
20260503173000 14 268 25.7 41.8 0.00 0.00 0.00 54 1015.4
20260503171502 14 257 25.7 40.2 0.00 0.00 0.00 54 1015.7
20260503081500 3 236 3.2 4.8 0.00 0.00 0.00 81 1016.7
20260503071459 3 233 4.8 6.4 0.00 0.00 0.00 79 1016.8
20260503054502 3 249 4.8 6.4 0.00 0.00 0.00 77 1017.5
20260503053000 3 240 3.2 4.8 0.00 0.00 0.00 78 1017.6
20260503051459 3 237 4.8 6.4 0.00 0.00 0.00 78 1017.6
20260503050004 3 242 3.2 6.4 0.00 0.00 0.00 78 1017.7
20260503044502 3 242 3.2 4.8 0.00 0.00 0.00 80 1017.7
20260503043000 3 245 3.2 3.2 0.00 0.00 0.00 80 1017.7
20260503041502 4 244 3.2 3.2 0.00 0.00 0.00 78 1017.7
20260503040006 4 245 1.6 3.2 0.00 0.00 0.00 77 1017.7
20260503034501 4 244 1.6 3.2 0.00 0.00 0.00 78 1017.7
20260503033002 4 244 3.2 4.8 0.00 0.00 0.00 77 1017.6
20260503030005 5 250 3.2 4.8 0.00 0.00 0.00 74 1017.8
20260503023001 5 338 0.0 1.6 0.00 0.00 0.00 68 1017.8
20260503021501 5 338 0.0 1.6 0.00 0.00 0.00 74 1017.7
20260503020004 6 338 0.0 1.6 0.00 0.00 0.00 73 1017.6
20260503014502 6 338 0.0 1.6 0.00 0.00 0.00 65 1017.5
20260503013001 7 338 0.0 0.0 0.00 0.00 0.00 64 1017.4
20260503010004 7 338 0.0 1.6 0.00 0.00 0.00 53 1017.4
20260503004501 8 338 1.6 1.6 0.00 0.00 0.00 51 1017.4
20260503003002 8 338 3.2 4.8 0.00 0.00 0.00 51 1017.3
20260503001502 9 333 3.2 4.8 0.00 0.00 0.00 49 1017.1
20260503000004 10 332 3.2 4.8 0.00 0.00 0.00 45 1017.1
20260502234502 10 342 3.2 6.4 0.00 0.00 0.00 48 1017.1
20260502233001 10 339 4.8 9.7 0.00 0.00 0.00 45 1017.1
20260502231501 10 330 6.4 9.7 0.00 0.00 0.00 46 1017.1
20260502230005 10 314 8.0 16.1 0.00 0.00 0.00 46 1017.2
20260502224502 11 328 6.4 11.3 0.00 0.00 0.00 47 1017.1
20260502223001 10 340 3.2 8.0 0.00 0.00 0.00 47 1017.2
20260502220004 10 338 4.8 9.7 0.00 0.00 0.00 47 1017.2
20260502214501 10 4 4.8 9.7 0.00 0.00 0.00 49 1017.2
20260502211501 11 295 8.0 14.5 0.00 0.00 0.00 45 1017.0
20260502210003 10 333 4.8 11.3 0.00 0.00 0.00 49 1017.2
20260502204501 10 311 6.4 11.3 0.00 0.00 0.00 50 1017.3
20260502201501 10 340 4.8 11.3 0.00 0.00 0.00 53 1017.6